Data for 02/23/2017

Time Sea-Level Adjusted Pressure Absolute Pressure Temperature Relative Humidity Dew Point   
(mb) (inHg) (mb) (inHg) (C) (F) (%) (C) (F)
00:05 1012 29.88 841 24.83 -2.3 27.9 78 -5.7 21.8
00:10 1012 29.88 841 24.83 -2.3 27.9 77 -5.7 21.7
00:15 1012 29.88 841 24.83 -2.3 27.9 77 -5.8 21.6
00:20 1012 29.88 841 24.83 -2.3 27.8 77 -5.8 21.6
00:25 1012 29.88 841 24.83 -2.4 27.6 78 -5.8 21.5
00:30 1012 29.88 841 24.83 -2.4 27.6 77 -5.9 21.5
00:35 1012 29.88 841 24.83 -2.4 27.7 77 -5.8 21.5
00:40 1012 29.88 841 24.83 -2.3 27.8 77 -5.8 21.6
00:45 1012 29.88 841 24.83 -2.3 27.8 78 -5.7 21.8
00:50 1012 29.88 841 24.83 -2.3 27.8 78 -5.7 21.7
00:55 1012 29.88 841 24.83 -2.2 28 78 -5.7 21.8
01:00 1012 29.88 841 24.83 -2.3 27.9 78 -5.7 21.8
01:05 1012 29.88 841 24.83 -2.2 28 77 -5.8 21.6
01:10 1012 29.88 841 24.83 -2.2 28 76 -5.8 21.5
01:15 1012 29.88 841 24.83 -2.2 28.1 76 -5.9 21.4
01:20 1012 29.88 841 24.83 -2.1 28.2 74 -6.1 21.1
01:25 1012 29.88 841 24.83 -2.1 28.2 75 -6 21.2
01:30 1012 29.88 841 24.83 -2.1 28.3 74 -6.1 21.1
01:35 1012 29.88 841 24.83 -2.1 28.2 75 -5.9 21.3
01:40 1012 29.88 841 24.83 -2.2 28.1 75 -6 21.2
01:45 1012 29.88 841 24.83 -2.2 28 75 -6.1 21.1
01:50 1012 29.88 841 24.83 -2.2 28 75 -6 21.2
01:55 1012 29.88 841 24.83 -2.2 28.1 75 -6 21.3
02:00 1012 29.88 841 24.83 -2.2 28 76 -5.9 21.3
02:05 1012 29.88 841 24.83 -2.2 28 77 -5.8 21.6
02:10 1012 29.88 841 24.83 -2.3 27.9 78 -5.6 21.9
02:15 1012 29.88 841 24.83 -2.3 27.8 79 -5.5 22.1
02:20 1011 29.85 841 24.83 -2.3 27.8 78 -5.6 21.9
02:25 1011 29.85 841 24.83 -2.3 27.9 78 -5.5 22
02:30 1011 29.85 841 24.83 -2.3 27.9 79 -5.4 22.2
02:35 1011 29.85 841 24.83 -2.3 27.8 79 -5.4 22.2
02:40 1011 29.85 840 24.81 -2.4 27.7 80 -5.4 22.2
02:45 1011 29.85 840 24.81 -2.4 27.8 79 -5.6 21.9
02:50 1011 29.85 840 24.81 -2.4 27.8 78 -5.7 21.7
02:55 1011 29.85 840 24.81 -2.3 27.8 76 -5.9 21.3
03:00 1011 29.85 840 24.81 -2.2 28 76 -5.9 21.4
03:05 1011 29.85 840 24.81 -2.3 27.9 78 -5.7 21.8
03:10 1011 29.85 840 24.81 -2.5 27.5 82 -5.2 22.6
03:15 1011 29.85 840 24.81 -2.7 27.2 84 -5.1 22.9
03:20 1011 29.85 840 24.81 -2.8 27 85 -5 22.9
03:25 1011 29.85 840 24.81 -2.8 26.9 83 -5.3 22.5
03:30 1011 29.85 840 24.81 -2.8 27 83 -5.3 22.4
03:35 1011 29.85 840 24.81 -2.8 27 81 -5.7 21.8
03:40 1011 29.85 840 24.81 -2.8 27 80 -5.8 21.6
03:45 1011 29.85 840 24.81 -2.8 27 78 -6.2 20.9
03:50 1011 29.85 840 24.81 -2.8 26.9 78 -6.1 21
03:55 1011 29.85 840 24.81 -2.9 26.8 78 -6.2 20.8
04:00 1011 29.85 840 24.81 -2.9 26.8 78 -6.3 20.7
04:05 1011 29.85 840 24.81 -3 26.7 78 -6.2 20.8
04:10 1011 29.85 841 24.83 -3 26.6 78 -6.3 20.6
04:15 1011 29.85 841 24.83 -3 26.6 77 -6.4 20.4
04:20 1011 29.85 841 24.83 -3 26.5 78 -6.4 20.4
04:25 1011 29.85 841 24.83 -3.1 26.5 78 -6.4 20.5
04:30 1011 29.85 841 24.83 -3.1 26.5 78 -6.4 20.6
04:35 1011 29.85 841 24.83 -3.1 26.4 78 -6.4 20.6
04:40 1011 29.85 841 24.83 -3.1 26.4 78 -6.4 20.6
04:45 1011 29.85 840 24.81 -3.1 26.4 78 -6.4 20.5
04:50 1011 29.85 840 24.81 -3.2 26.3 78 -6.5 20.3
04:55 1011 29.85 840 24.81 -3.2 26.3 78 -6.5 20.4
05:00 1011 29.85 840 24.81 -3.2 26.3 78 -6.5 20.3
05:05 1011 29.85 840 24.81 -3.2 26.3 78 -6.6 20.2
05:10 1011 29.85 840 24.81 -3.1 26.4 76 -6.7 19.9
05:15 1011 29.85 840 24.81 -3.1 26.4 76 -6.8 19.8
05:20 1011 29.85 840 24.81 -3.1 26.4 76 -6.8 19.7
05:25 1011 29.85 840 24.81 -3.1 26.4 75 -6.9 19.5
05:30 1011 29.85 840 24.81 -3.2 26.3 75 -6.9 19.5
05:35 1011 29.85 840 24.81 -3.2 26.2 75 -7 19.4
05:40 1011 29.85 840 24.81 -3.2 26.2 75 -7.1 19.3
05:45 1011 29.85 840 24.81 -3.3 26.1 75 -7.1 19.2
05:50 1011 29.85 840 24.81 -3.3 26.1 74 -7.2 19
05:55 1011 29.85 840 24.81 -3.3 26.1 75 -7.2 19.1
06:00 1011 29.85 840 24.81 -3.3 26 74 -7.3 18.9
06:05 1011 29.85 840 24.81 -3.3 26 73 -7.5 18.5
06:10 1011 29.85 840 24.81 -3.3 26.1 73 -7.5 18.6
06:15 1011 29.85 840 24.81 -3.3 26 73 -7.6 18.4
06:20 1011 29.85 840 24.81 -3.3 26 73 -7.5 18.5
06:25 1011 29.85 840 24.81 -3.4 25.9 73 -7.6 18.3
06:30 1011 29.85 840 24.81 -3.4 26 72 -7.7 18.1
06:35 1011 29.85 840 24.81 -3.3 26.1 72 -7.7 18.2
06:40 1011 29.85 840 24.81 -3.4 25.9 73 -7.6 18.3
06:45 1011 29.85 840 24.81 -3.4 25.9 72 -7.7 18.2
06:50 1011 29.85 841 24.83 -3.4 25.9 72 -7.7 18.2
06:55 1011 29.85 841 24.83 -3.4 25.9 72 -7.7 18.1
07:00 1011 29.85 841 24.83 -3.4 25.9 73 -7.6 18.3
07:05 1011 29.85 841 24.83 -3.5 25.8 73 -7.6 18.4
07:10 1011 29.85 841 24.83 -3.5 25.7 73 -7.7 18.2
07:15 1011 29.85 841 24.83 -3.5 25.7 74 -7.5 18.5
07:20 1012 29.88 841 24.83 -3.6 25.6 75 -7.5 18.6
07:25 1012 29.88 841 24.83 -3.6 25.5 75 -7.4 18.6
07:30 1012 29.88 841 24.83 -3.7 25.4 74 -7.6 18.3
07:35 1012 29.88 841 24.83 -3.6 25.4 75 -7.5 18.4
07:40 1012 29.88 841 24.83 -3.6 25.5 74 -7.6 18.4
07:45 1012 29.88 841 24.83 -3.6 25.5 74 -7.6 18.3
07:50 1012 29.88 841 24.83 -3.6 25.6 75 -7.4 18.7
07:55 1012 29.88 841 24.83 -3.5 25.6 75 -7.4 18.7
08:00 1012 29.88 841 24.83 -3.5 25.7 75 -7.3 18.8
08:05 1012 29.88 841 24.83 -3.4 25.9 74 -7.4 18.7
08:10 1012 29.88 841 24.83 -3.3 26.1 73 -7.4 18.7
08:15 1012 29.88 841 24.83 -3.2 26.3 73 -7.4 18.7
08:20 1012 29.88 841 24.83 -3.1 26.5 70 -7.8 18
08:25 1012 29.88 841 24.83 -2.9 26.8 69 -7.8 18
08:30 1012 29.88 841 24.83 -2.6 27.3 67 -7.9 17.8
08:35 1012 29.88 841 24.83 -2.6 27.4 67 -7.9 17.8
08:40 1012 29.88 841 24.83 -2.4 27.8 64 -8.4 17
08:45 1012 29.88 841 24.83 -2.3 27.8 63 -8.4 16.9
08:50 1012 29.88 841 24.83 -2.3 27.8 62 -8.6 16.5
08:55 1012 29.88 841 24.83 -2.2 28.1 62 -8.5 16.8
09:00 1012 29.88 841 24.83 -1.9 28.6 60 -8.8 16.2
09:05 1012 29.88 841 24.83 -2.1 28.3 60 -8.8 16.2
09:10 1012 29.88 841 24.83 -2 28.4 61 -8.6 16.6
09:15 1012 29.88 841 24.83 -2 28.4 62 -8.3 17
09:20 1012 29.88 841 24.83 -2.2 28 62 -8.5 16.8
09:25 1012 29.88 841 24.83 -2.2 28.1 63 -8.3 17
09:30 1012 29.88 841 24.83 -2.1 28.3 63 -8.2 17.3
09:35 1012 29.88 841 24.83 -2.1 28.2 61 -8.5 16.6
09:40 1012 29.88 841 24.83 -2.2 28.1 64 -8.2 17.3
09:45 1012 29.88 841 24.83 -2.3 27.9 64 -8.1 17.4
09:50 1012 29.88 841 24.83 -2.2 28 65 -7.9 17.8
09:55 1012 29.88 841 24.83 -2.4 27.7 66 -8 17.7
10:00 1012 29.88 841 24.83 -2.4 27.7 66 -7.9 17.9
10:05 1012 29.88 841 24.83 -2.1 28.2 60 -9 15.9
10:10 1012 29.88 841 24.83 -1.8 28.7 57 -9.2 15.5
10:15 1012 29.88 841 24.83 -1.4 29.5 55 -9.2 15.5
10:20 1012 29.88 841 24.83 -1.1 30 56 -8.9 16
10:25 1012 29.88 841 24.83 -0.9 30.4 56 -8.6 16.5
10:30 1012 29.88 841 24.83 -0.9 30.3 54 -9.1 15.6
10:35 1012 29.88 841 24.83 -0.8 30.6 52 -9.5 14.9
10:40 1012 29.88 841 24.83 -1.2 29.9 53 -9.5 15
10:45 1012 29.88 841 24.83 -1.1 30 52 -9.7 14.6
10:50 1012 29.88 841 24.83 -1.4 29.5 53 -9.8 14.4
10:55 1012 29.88 841 24.83 -1.3 29.6 53 -9.8 14.4
11:00 1012 29.88 841 24.83 -1.4 29.5 53 -9.7 14.5
11:05 1012 29.88 841 24.83 -1.3 29.6 55 -9.3 15.3
11:10 1012 29.88 841 24.83 -1.2 29.9 64 -7.2 19
11:15 1012 29.88 841 24.83 -2.1 28.2 67 -7.5 18.4
11:20 1012 29.88 841 24.83 -2.1 28.3 66 -7.5 18.5
11:25 1012 29.88 841 24.83 -1.9 28.6 65 -7.6 18.3
11:30 1012 29.88 841 24.83 -1.9 28.7 64 -7.8 18
11:35 1012 29.88 841 24.83 -1.9 28.5 65 -7.7 18.1
11:40 1012 29.88 841 24.83 -1.2 29.9 62 -7.7 18.2
11:45 1012 29.88 841 24.83 -1.1 30.1 62 -7.4 18.7
11:50 1012 29.88 841 24.83 -1.7 28.9 66 -7.2 19.1
11:55 1012 29.88 841 24.83 -2 28.4 65 -7.7 18.1
12:00 1012 29.88 841 24.83 -1.9 28.6 66 -7.5 18.5
12:05 1012 29.88 841 24.83 -1.7 29 64 -7.6 18.2
12:10 1012 29.88 841 24.83 -1.4 29.4 62 -7.8 18
12:15 1012 29.88 841 24.83 -1.7 29 64 -7.7 18.2
12:20 1012 29.88 841 24.83 -1.9 28.6 64 -7.9 17.8
12:25 1012 29.88 841 24.83 -1.7 28.9 63 -7.9 17.8
12:30 1012 29.88 841 24.83 -1.8 28.7 61 -8.3 17.1
12:35 1012 29.88 841 24.83 -1.6 29.1 62 -8 17.7
12:40 1012 29.88 841 24.83 -1.6 29.1 63 -7.7 18.2
12:45 1012 29.88 841 24.83 -1.7 29 60 -8.5 16.6
12:50 1012 29.88 841 24.83 -1.2 29.9 56 -8.8 16.1
12:55 1012 29.88 841 24.83 -1.5 29.3 62 -7.8 17.9
13:00 1012 29.88 841 24.83 -1.9 28.5 62 -8.4 16.9
13:05 1012 29.88 841 24.83 -1.6 29.2 60 -8.3 17
13:10 1012 29.88 841 24.83 -1.5 29.3 59 -8.5 16.7
13:15 1012 29.88 841 24.83 -1.5 29.4 64 -7.4 18.6
13:20 1012 29.88 841 24.83 -1.9 28.6 65 -7.6 18.4
13:25 1012 29.88 841 24.83 -2.1 28.1 65 -7.9 17.8
13:30 1012 29.88 841 24.83 -1.6 29.2 61 -8.2 17.3
13:35 1012 29.88 841 24.83 -1.4 29.4 61 -8 17.6
13:40 1012 29.88 841 24.83 -1.7 29 62 -7.9 17.7
13:45 1012 29.88 841 24.83 -1.6 29 62 -7.9 17.8
13:50 1012 29.88 841 24.83 -1.8 28.8 62 -8 17.5
13:55 1012 29.88 841 24.83 -1.8 28.7 63 -8 17.7
14:00 1012 29.88 841 24.83 -1.7 29 64 -7.7 18.2
14:05 1012 29.88 841 24.83 -1.8 28.7 63 -7.9 17.8
14:10 1012 29.88 841 24.83 -1.9 28.7 63 -8.1 17.5
14:15 1012 29.88 841 24.83 -2 28.4 66 -7.6 18.4
14:20 1012 29.88 841 24.83 -2.3 27.9 66 -7.9 17.8
14:25 1012 29.88 841 24.83 -2.3 27.8 66 -7.9 17.7
14:30 1012 29.88 841 24.83 -2.5 27.5 66 -8.1 17.4
14:35 1012 29.88 841 24.83 -2.7 27.2 66 -8.2 17.2
14:40 1012 29.88 841 24.83 -2.5 27.6 65 -8.2 17.2
14:45 1012 29.88 841 24.83 -2.4 27.7 65 -8.1 17.4
14:50 1012 29.88 842 24.86 -2.6 27.3 66 -8 17.6
14:55 1012 29.88 842 24.86 -3 26.6 67 -8.4 16.9
15:00 1012 29.88 842 24.86 -3.1 26.4 65 -8.8 16.2
15:05 1013 29.91 842 24.86 -3.1 26.5 65 -8.7 16.3
15:10 1013 29.91 842 24.86 -3.1 26.4 66 -8.5 16.7
15:15 1013 29.91 842 24.86 -3.3 26 67 -8.6 16.6
15:20 1013 29.91 842 24.86 -3.2 26.2 65 -8.8 16.1
15:25 1013 29.91 842 24.86 -3.4 25.9 64 -9.2 15.4
15:30 1013 29.91 842 24.86 -3.4 25.9 63 -9.5 14.9
15:35 1013 29.91 842 24.86 -3.6 25.5 64 -9.4 15.1
15:40 1013 29.91 842 24.86 -3.7 25.4 64 -9.5 14.9
15:45 1013 29.91 842 24.86 -3.7 25.3 65 -9.4 15.1
15:50 1013 29.91 842 24.86 -3.9 25.1 66 -9.3 15.2
15:55 1013 29.91 842 24.86 -4 24.9 65 -9.6 14.8
16:00 1013 29.91 842 24.86 -4.2 24.5 66 -9.7 14.6
16:05 1013 29.91 842 24.86 -4.2 24.5 66 -9.6 14.6
16:10 1013 29.91 842 24.86 -4.2 24.5 66 -9.5 14.9
16:15 1013 29.91 842 24.86 -4.3 24.3 68 -9.4 15.1
16:20 1013 29.91 842 24.86 -4.3 24.2 67 -9.6 14.7
16:25 1013 29.91 842 24.86 -4.4 24.1 67 -9.6 14.8
16:30 1013 29.91 842 24.86 -4.5 23.9 66 -9.9 14.1
16:35 1013 29.91 842 24.86 -4.6 23.7 67 -9.8 14.3
16:40 1013 29.91 842 24.86 -4.6 23.7 68 -9.6 14.7
16:45 1013 29.91 842 24.86 -4.9 23.2 70 -9.4 15
16:50 1012 29.88 842 24.86 -5 23 72 -9.3 15.3
16:55 1012 29.88 842 24.86 -5 23 72 -9.3 15.2
17:00 1012 29.88 842 24.86 -5.1 22.9 71 -9.5 14.9
17:05 1013 29.91 842 24.86 -5.1 22.8 72 -9.4 15
17:10 1013 29.91 842 24.86 -5.2 22.6 72 -9.6 14.8
17:15 1013 29.91 842 24.86 -5.3 22.5 70 -9.9 14.1
17:20 1013 29.91 842 24.86 -5.3 22.4 70 -10 14.1
17:25 1013 29.91 842 24.86 -5.3 22.4 70 -10 13.9
17:30 1013 29.91 842 24.86 -5.3 22.4 70 -9.9 14.2
17:35 1013 29.91 842 24.86 -5.4 22.3 69 -10.1 13.8
17:40 1013 29.91 842 24.86 -5.4 22.3 69 -10.1 13.7
17:45 1013 29.91 842 24.86 -5.4 22.2 69 -10.2 13.6
17:50 1013 29.91 842 24.86 -5.4 22.3 70 -10.1 13.8
17:55 1013 29.91 842 24.86 -5.4 22.3 69 -10.2 13.7
18:00 1013 29.91 842 24.86 -5.5 22.2 70 -10.1 13.9
18:05 1013 29.91 842 24.86 -5.5 22.1 70 -10.1 13.8
18:10 1013 29.91 842 24.86 -5.5 22 70 -10.1 13.8
18:15 1013 29.91 842 24.86 -5.6 22 71 -10 13.9
18:20 1013 29.91 842 24.86 -5.6 21.9 71 -10 14
18:25 1013 29.91 842 24.86 -5.6 21.9 71 -10 13.9
18:30 1013 29.91 842 24.86 -5.7 21.8 72 -10 14
18:35 1013 29.91 843 24.89 -5.7 21.8 72 -10 14
18:40 1013 29.91 843 24.89 -5.7 21.7 72 -10 14.1
18:45 1013 29.91 843 24.89 -5.7 21.7 72 -10 14.1
18:50 1013 29.91 843 24.89 -5.7 21.7 72 -10 14
18:55 1013 29.91 843 24.89 -5.8 21.6 73 -10 14.1
19:00 1013 29.91 843 24.89 -5.8 21.5 72 -10.1 13.7
19:05 1013 29.91 843 24.89 -5.8 21.5 72 -10 14
19:10 1013 29.91 843 24.89 -5.9 21.4 73 -10 14
19:15 1013 29.91 843 24.89 -5.9 21.4 73 -10 14
19:20 1013 29.91 843 24.89 -5.9 21.4 73 -10 13.9
19:25 1013 29.91 843 24.89 -5.9 21.3 73 -10.1 13.9
19:30 1013 29.91 842 24.86 -6 21.3 73 -10.1 13.8
19:35 1013 29.91 842 24.86 -6 21.2 73 -10 13.9
19:40 1013 29.91 842 24.86 -6 21.2 73 -10 13.9
19:45 1013 29.91 842 24.86 -6 21.1 74 -10 14
19:50 1013 29.91 842 24.86 -6 21.1 73 -10.1 13.8
19:55 1013 29.91 842 24.86 -6 21.2 73 -10.1 13.8
20:00 1013 29.91 842 24.86 -6 21.3 73 -10.1 13.9
20:05 1013 29.91 842 24.86 -6 21.2 73 -10.1 13.7
20:10 1013 29.91 842 24.86 -6 21.3 72 -10.2 13.7
20:15 1013 29.91 842 24.86 -6 21.2 72 -10.3 13.5
20:20 1013 29.91 842 24.86 -5.9 21.3 71 -10.4 13.4
20:25 1013 29.91 842 24.86 -5.9 21.3 71 -10.4 13.3
20:30 1013 29.91 843 24.89 -5.9 21.3 71 -10.4 13.2
20:35 1013 29.91 843 24.89 -5.9 21.3 71 -10.3 13.4
20:40 1013 29.91 843 24.89 -6 21.3 72 -10.2 13.6
20:45 1013 29.91 843 24.89 -6 21.2 73 -10.1 13.8
20:50 1013 29.91 843 24.89 -6 21.1 74 -10 13.9
20:55 1013 29.91 843 24.89 -6.1 21.1 72 -10.2 13.6
21:00 1013 29.91 843 24.89 -6 21.2 72 -10.2 13.6
21:05 1013 29.91 843 24.89 -6 21.2 73 -10.1 13.8
21:10 1014 29.94 843 24.89 -6 21.1 73 -10.1 13.7
21:15 1013 29.91 843 24.89 -6 21.1 72 -10.3 13.5
21:20 1014 29.94 843 24.89 -6 21.1 73 -10.2 13.6
21:25 1014 29.94 843 24.89 -6 21.1 72 -10.2 13.6
21:30 1014 29.94 843 24.89 -6.1 21.1 72 -10.3 13.5
21:35 1014 29.94 843 24.89 -6.1 21.1 73 -10.2 13.6
21:40 1014 29.94 843 24.89 -6.1 21.1 73 -10.2 13.6
21:45 1014 29.94 843 24.89 -6 21.1 72 -10.4 13.4
21:50 1014 29.94 843 24.89 -6 21.1 73 -10.1 13.8
21:55 1014 29.94 843 24.89 -6.1 21.1 73 -10.2 13.6
22:00 1014 29.94 843 24.89 -6.1 21.1 72 -10.3 13.5
22:05 1014 29.94 843 24.89 -6.1 21.1 72 -10.3 13.5
22:10 1013 29.91 843 24.89 -6.1 21.1 72 -10.3 13.5
22:15 1013 29.91 843 24.89 -6.1 21.1 72 -10.4 13.4
22:20 1013 29.91 843 24.89 -6.1 21.1 72 -10.4 13.3
22:25 1013 29.91 843 24.89 -6.1 21 72 -10.4 13.3
22:30 1013 29.91 843 24.89 -6.1 21 72 -10.4 13.3
22:35 1013 29.91 843 24.89 -6.1 21 72 -10.4 13.3
22:40 1013 29.91 843 24.89 -6.1 21 72 -10.4 13.4
22:45 1014 29.94 843 24.89 -6.1 21 71 -10.5 13.1
22:50 1014 29.94 843 24.89 -6.1 21 71 -10.6 13
22:55 1014 29.94 843 24.89 -6.1 21.1 71 -10.5 13.1
23:00 1014 29.94 843 24.89 -6.1 21.1 70 -10.7 12.7
23:05 1014 29.94 843 24.89 -6 21.2 69 -10.8 12.6
23:10 1014 29.94 843 24.89 -6 21.2 71 -10.4 13.2
23:15 1014 29.94 843 24.89 -6 21.1 72 -10.3 13.5
23:20 1014 29.94 843 24.89 -6.1 21 73 -10.2 13.6
23:25 1014 29.94 843 24.89 -6.1 21 73 -10.2 13.6
23:30 1014 29.94 843 24.89 -6.2 20.9 74 -10.1 13.8
23:35 1014 29.94 843 24.89 -6.2 20.8 75 -10 14
23:40 1014 29.94 843 24.89 -6.3 20.7 76 -9.9 14.2
23:45 1014 29.94 843 24.89 -6.3 20.6 76 -9.9 14.2
23:50 1014 29.94 843 24.89 -6.4 20.5 77 -9.7 14.5
23:55 1014 29.94 843 24.89 -6.5 20.4 77 -9.8 14.4
24:00 1014 29.94 843 24.89 -6.5 20.3 78 -9.8 14.4